This is the latest recevied weather packets stored in our database for station/object KM5VY. If no packets are shown the sender has not sent any weather packets the latest 10 day(s).
| Time | Temp. | Humidity | Pressure | Rain* | Wind** | Luminosity | Snow |
|---|---|---|---|---|---|---|---|
| 1777831436 | 17.78° C | 40% | 1023.4 hPa | 0 mm | - | - | - |
| 1777830834 | 17.78° C | 40% | 1022 hPa | 0 mm | - | - | - |
| 1777830728 | 17.78° C | 41% | 1021.3 hPa | 0 mm | - | - | - |
| 1777830234 | 17.78° C | 41% | 1021.3 hPa | 0 mm | - | - | - |
| 1777830049 | 17.22° C | 41% | 1020.7 hPa | 0 mm | - | - | - |
| 1777829632 | 17.22° C | 41% | 1020.7 hPa | 0 mm | - | - | - |
| 1777829031 | 17.22° C | 42% | 1021.7 hPa | 0 mm | - | - | - |
| 1777828786 | 16.67° C | 42% | 1022 hPa | 0 mm | - | - | - |
| 1777828431 | 16.67° C | 42% | 1022 hPa | 0 mm | - | - | - |
| 1777827830 | 16.11° C | 43% | 1022.3 hPa | 0 mm | - | - | - |
| 1777827228 | 15.56° C | 45% | 1022.7 hPa | 0 mm | - | - | - |
| 1777826627 | 15° C | 46% | 1022.7 hPa | 0 mm | - | - | - |
| 1777826026 | 14.44° C | 46% | 1022.3 hPa | 0 mm | - | - | - |
| 1777825425 | 13.89° C | 47% | 1022.3 hPa | 0 mm | - | - | - |
| 1777825191 | 13.33° C | 49% | 1022.3 hPa | 0 mm | - | - | - |
| 1777825000 | 13.33° C | 49% | 1022.3 hPa | 0 mm | - | - | - |
| 1777824825 | 13.33° C | 49% | 1022.3 hPa | 0 mm | - | - | - |
| 1777824326 | 12.78° C | 51% | 1022.7 hPa | 0 mm | - | - | - |
| 1777824224 | 12.78° C | 51% | 1022.7 hPa | 0 mm | - | - | - |
| 1777823622 | 12.22° C | 53% | 1022.7 hPa | 0 mm | - | - | - |
| 1777823104 | 11.67° C | 53% | 1022.7 hPa | 0 mm | - | - | - |
| 1777823022 | 11.67° C | 53% | 1022.7 hPa | 0 mm | - | - | - |
| 1777822420 | 11.11° C | 53% | 1022.7 hPa | 0 mm | - | - | - |
| 1777821820 | 10.56° C | 52% | 1022.7 hPa | 0 mm | - | - | - |
| 1777821461 | 10° C | 55% | 1022.7 hPa | 0 mm | - | - | - |
* Rain latest hour (hover to see other rain measurements)
** Current wind speed in m/s (hover to see current wind gust speed)